DELTA 1 DEB, 7037

Orbit data source: Space-Track

DELTA 1 DEB, 7037 is space debris in LEO originally from a launch on Tue, 06 Nov 1973 UTC launched from the Air Force Western Test Range (AFWTR). Debris objects in space refer to the collection of defunct objects orbiting the Earth. Examples of debris include non-operational satellites, rocket bodies, and fragments generated from explosions, collisions, or faulty payload assembly.

Loading next visibility...
Identifier
7037, 1973-086AD
Orbit
LEO
Country
Flag of USUS
Related business
Manufacturer
Unknown
Mission
Spacecraft
Bus & Motor
Unknown
Mass
Unknown
Launch date (UTC)
Icon of a cake. It is the launch day of the satellite!1973-11-06 (52 years ago)
Launch vehicle
Unknown
Launch site
Air Force Western Test Range (AFWTR)
Object type
Payload
Rocket body
Debris
Shape & HBR
Unknown shape, 0.7 m
Radar Cross Section
Medium (>0.1 m² and <1 m²)

Expand to show TLE details & history
Last TLE update: 16 hours ago

TLE from 16 hours ago
0 DELTA 1 DEB
1 07037U 73086AD  25309.70016888  .00000065  00000-0  13000-2 0  9995
2 07037 102.0363  11.4928 0325731 198.2833 321.8059 11.86663985251496
Epoch: 2025-11-05T16:48Z
TLE epoch observation values (Epoch: 2025-11-05T16:48:14.591Z)
Latitude
21.79316°
Longitude
-100.87055°
Altitude
1,538.942 km
Speed
7.187 km/s
True Right ascension
13h 05m 26s
True Declination
21° 41' 12"
Sunlit
Object was in daylight at epoch
Visualization orbit readout
Latitude
Unknown
Longitude
Unknown
Altitude
Unknown
Speed
Unknown
Apparent Right ascension
Unknown
Apparent Declination
Unknown
Sunlit
N/A
Visualization observer readout
Local Sidereal Time
05:09:12
Azimuth
Unknown
Elevation
Unknown
Doppler factor
Unknown
Orbital elements
Apogee altitude
2,003.163 km
Perigee altitude
1,474.378 km
Semi-major axis
8,116.907 km
Eccentricity
0.03257
Inclination
102.0363°
RAAN
11.4928°
Arg. of periapsis
198.2833°
True anomaly
319.42243°
Mean anomaly
321.8059°
Eccentric anomaly
320.62185°
Mean motion
2.96795 °/min
Orbital period
121.3 mins
BSTAR
0.0013
Loading maneuver chart data...
Computing Atmospheric mass density...

Documentation

Showing up to 5 results
|